• In Hungary
  • List of Countries
  • For 7 days
  • Water Temperature
  • Satellite Maps
  • Weather Map
  • News
  • Weather Widgets
  • user-avatar
    Login

    Hourly Weather Palnoe

    Today, 15 August, Wednesday

    Time Temperature Precipitation Wind Pressure Humidity
    00:00 +18°C° 0 mm 1 mps 752 mmHg 78%
    01:00 +16°C° 0 mm 1 mps 752 mmHg 80%
    02:00 +16°C° 0 mm 2 mps 752 mmHg 81%
    03:00 +15°C° 0 mm 1 mps 752 mmHg 85%
    04:00 +16°C° 0 mm 1 mps 752 mmHg 84%
    05:00 +16°C° 0 mm 2 mps 752 mmHg 82%
    06:00 +16°C° 0 mm 2 mps 752 mmHg 81%
    07:00 +18°C° 0 mm 3 mps 752 mmHg 73%
    08:00 +21°C° 0 mm 4 mps 751 mmHg 66%
    09:00 +23°C° 0 mm 5 mps 751 mmHg 57%
    10:00 +26°C° 0 mm 5 mps 751 mmHg 54%
    11:00 +27°C° 0 mm 5 mps 751 mmHg 50%
    12:00 +29°C° 0 mm 6 mps 750 mmHg 47%
    13:00 +29°C° 0 mm 6 mps 750 mmHg 46%
    14:00 +30°C° 0 mm 6 mps 750 mmHg 46%
    15:00 +32°C° 0 mm 7 mps 749 mmHg 45%
    16:00 +30°C° 0 mm 6 mps 749 mmHg 48%
    17:00 +30°C° 0 mm 5 mps 749 mmHg 50%
    18:00 +29°C° 0 mm 5 mps 749 mmHg 53%
    19:00 +28°C° 0 mm 5 mps 749 mmHg 55%
    20:00 +27°C° 0 mm 5 mps 749 mmHg 57%
    21:00 +26°C° 0 mm 5 mps 749 mmHg 60%
    22:00 +25°C° 0.3 mm 5 mps 749 mmHg 65%
    23:00 +22°C° 0.3 mm 4 mps 749 mmHg 71%

    Tomorrow, 16 August, Thursday

    Time Temperature Precipitation Wind Pressure Humidity
    00:00 +21°C° 0.3 mm 4 mps 749 mmHg 76%
    01:00 +21°C° 0.1 mm 3 mps 749 mmHg 80%
    02:00 +20°C° 0.1 mm 3 mps 749 mmHg 84%
    03:00 +19°C° 0.1 mm 3 mps 749 mmHg 88%
    04:00 +19°C° 0.1 mm 3 mps 749 mmHg 89%
    05:00 +19°C° 0.1 mm 2 mps 749 mmHg 90%
    06:00 +19°C° 0.1 mm 2 mps 749 mmHg 91%
    07:00 +20°C° 0.1 mm 3 mps 749 mmHg 86%
    08:00 +21°C° 0.1 mm 3 mps 750 mmHg 81%
    09:00 +22°C° 0.1 mm 3 mps 750 mmHg 76%
    10:00 +24°C° 0 mm 3 mps 750 mmHg 71%
    11:00 +25°C° 0 mm 3 mps 750 mmHg 66%
    12:00 +26°C° 0 mm 3 mps 750 mmHg 61%
    13:00 +26°C° 0.3 mm 3 mps 750 mmHg 60%
    14:00 +27°C° 0.3 mm 3 mps 750 mmHg 58%
    15:00 +27°C° 0.3 mm 3 mps 750 mmHg 57%
    16:00 +27°C° 0.6 mm 3 mps 751 mmHg 62%
    17:00 +26°C° 0.6 mm 2 mps 751 mmHg 68%
    18:00 +25°C° 0.6 mm 2 mps 751 mmHg 74%
    19:00 +23°C° 0.2 mm 2 mps 751 mmHg 79%
    20:00 +21°C° 0.2 mm 2 mps 752 mmHg 83%
    21:00 +19°C° 0.2 mm 2 mps 752 mmHg 88%
    22:00 +19°C° 0 mm 2 mps 752 mmHg 90%
    23:00 +18°C° 0 mm 2 mps 752 mmHg 91%

    Day after tomorrow, 17 August, Friday

    Time Temperature Precipitation Wind Pressure Humidity
    00:00 +17°C° 0 mm 3 mps 752 mmHg 93%
    01:00 +17°C° 0 mm 3 mps 753 mmHg 93%
    02:00 +16°C° 0 mm 3 mps 753 mmHg 94%
    03:00 +14°C° 0 mm 3 mps 753 mmHg 95%
    04:00 +14°C° 0 mm 3 mps 753 mmHg 95%
    05:00 +14°C° 0 mm 3 mps 754 mmHg 94%
    06:00 +14°C° 0 mm 3 mps 754 mmHg 94%
    07:00 +16°C° 0 mm 3 mps 754 mmHg 86%
    08:00 +18°C° 0 mm 3 mps 755 mmHg 79%
    09:00 +20°C° 0 mm 3 mps 755 mmHg 72%
    10:00 +21°C° 0 mm 4 mps 755 mmHg 64%
    11:00 +23°C° 0 mm 4 mps 755 mmHg 57%
    12:00 +25°C° 0 mm 4 mps 755 mmHg 49%
    13:00 +26°C° 0 mm 4 mps 755 mmHg 47%
    14:00 +26°C° 0 mm 4 mps 755 mmHg 44%
    15:00 +27°C° 0 mm 3 mps 755 mmHg 42%
    16:00 +26°C° 0 mm 3 mps 755 mmHg 44%
    17:00 +26°C° 0 mm 3 mps 755 mmHg 47%
    18:00 +25°C° 0 mm 3 mps 755 mmHg 50%
    19:00 +22°C° 0 mm 3 mps 755 mmHg 55%
    20:00 +20°C° 0 mm 3 mps 755 mmHg 61%
    21:00 +18°C° 0 mm 2 mps 755 mmHg 66%
    22:00 +17°C° 0 mm 2 mps 756 mmHg 70%
    23:00 +16°C° 0 mm 2 mps 756 mmHg 73%

    18 August, Saturday

    Time Temperature Precipitation Wind Pressure Humidity
    00:00 +16°C° 0 mm 2 mps 756 mmHg 76%
    01:00 +15°C° 0 mm 2 mps 756 mmHg 77%
    02:00 +15°C° 0 mm 2 mps 756 mmHg 79%
    03:00 +14°C° 0 mm 2 mps 756 mmHg 81%
    04:00 +14°C° 0 mm 2 mps 757 mmHg 81%
    05:00 +14°C° 0 mm 2 mps 757 mmHg 81%
    06:00 +14°C° 0 mm 2 mps 757 mmHg 81%
    07:00 +16°C° 0 mm 2 mps 757 mmHg 73%
    08:00 +18°C° 0 mm 2 mps 757 mmHg 64%
    09:00 +20°C° 0 mm 2 mps 757 mmHg 56%
    10:00 +23°C° 0 mm 2 mps 757 mmHg 51%
    11:00 +24°C° 0 mm 2 mps 757 mmHg 46%
    12:00 +25°C° 0 mm 3 mps 757 mmHg 40%
    13:00 +26°C° 0 mm 2 mps 757 mmHg 39%
    14:00 +26°C° 0 mm 2 mps 757 mmHg 37%
    15:00 +27°C° 0 mm 2 mps 757 mmHg 36%
    16:00 +26°C° 0 mm 2 mps 756 mmHg 39%
    17:00 +26°C° 0 mm 2 mps 756 mmHg 42%
    18:00 +25°C° 0 mm 2 mps 756 mmHg 45%
    19:00 +23°C° 0 mm 2 mps 757 mmHg 49%
    20:00 +20°C° 0 mm 2 mps 757 mmHg 54%
    21:00 +18°C° 0 mm 2 mps 757 mmHg 58%
    22:00 +17°C° 0 mm 2 mps 757 mmHg 61%
    23:00 +16°C° 0 mm 2 mps 757 mmHg 64%

    19 August, Sunday

    Time Temperature Precipitation Wind Pressure Humidity
    00:00 +15°C° 0 mm 2 mps 757 mmHg 67%
    01:00 +15°C° 0 mm 2 mps 757 mmHg 70%
    02:00 +14°C° 0 mm 2 mps 757 mmHg 72%
    03:00 +14°C° 0 mm 2 mps 757 mmHg 75%
    04:00 +14°C° 0 mm 1 mps 757 mmHg 76%
    05:00 +14°C° 0 mm 1 mps 757 mmHg 77%
    06:00 +14°C° 0 mm 1 mps 757 mmHg 78%
    07:00 +16°C° 0 mm 2 mps 757 mmHg 71%
    08:00 +18°C° 0 mm 2 mps 757 mmHg 64%
    09:00 +20°C° 0 mm 2 mps 757 mmHg 56%
    10:00 +21°C° 0 mm 2 mps 757 mmHg 51%
    11:00 +23°C° 0 mm 2 mps 757 mmHg 46%
    12:00 +25°C° 0 mm 2 mps 756 mmHg 41%
    13:00 +25°C° 0 mm 2 mps 756 mmHg 39%
    14:00 +26°C° 0 mm 3 mps 755 mmHg 38%
    15:00 +26°C° 0 mm 3 mps 755 mmHg 36%
    16:00 +26°C° 0 mm 2 mps 755 mmHg 39%
    17:00 +25°C° 0 mm 2 mps 754 mmHg 43%
    18:00 +24°C° 0 mm 2 mps 754 mmHg 46%
    19:00 +21°C° 0 mm 2 mps 754 mmHg 51%
    20:00 +19°C° 0 mm 2 mps 754 mmHg 56%
    21:00 +17°C° 0 mm 2 mps 754 mmHg 61%
    22:00 +17°C° 0 mm 2 mps 754 mmHg 63%
    23:00 +16°C° 0 mm 2 mps 754 mmHg 65%

    20 August, Monday

    Time Temperature Precipitation Wind Pressure Humidity
    00:00 +16°C° 0 mm 2 mps 753 mmHg 67%
    01:00 +14°C° 0 mm 3 mps 753 mmHg 69%
    02:00 +14°C° 0 mm 3 mps 753 mmHg 70%
    03:00 +13°C° 0 mm 3 mps 753 mmHg 72%
    04:00 +13°C° 0 mm 3 mps 753 mmHg 72%
    05:00 +13°C° 0 mm 3 mps 752 mmHg 73%
    06:00 +13°C° 0 mm 3 mps 752 mmHg 73%
    07:00 +17°C° 0 mm 3 mps 752 mmHg 67%
    08:00 +19°C° 0 mm 3 mps 752 mmHg 60%
    09:00 +21°C° 0 mm 4 mps 752 mmHg 54%
    10:00 +22°C° 0 mm 4 mps 752 mmHg 51%
    11:00 +25°C° 0 mm 4 mps 752 mmHg 49%
    12:00 +26°C° 0 mm 4 mps 752 mmHg 46%
    13:00 +26°C° 0.3 mm 4 mps 752 mmHg 48%
    14:00 +27°C° 0.3 mm 4 mps 751 mmHg 50%
    15:00 +27°C° 0.3 mm 4 mps 751 mmHg 52%
    16:00 +26°C° 0.8 mm 4 mps 751 mmHg 58%
    17:00 +25°C° 0.8 mm 3 mps 751 mmHg 64%
    18:00 +24°C° 0.8 mm 2 mps 751 mmHg 69%
    19:00 +23°C° 0.4 mm 2 mps 751 mmHg 75%
    20:00 +20°C° 0.4 mm 2 mps 751 mmHg 80%
    21:00 +18°C° 0.4 mm 2 mps 751 mmHg 86%
    22:00 +18°C° 0 mm 2 mps 751 mmHg 88%
    23:00 +18°C° 0 mm 1 mps 751 mmHg 90%
    Show more